Temperature
20 19 19 18 18 17 17 17 17 17 17 17 17 17 17 17 17 17 17 17 17 17 16 16 16 16 16 16 15 15 15 15 15 15 15 15 15 15 15 15 15 14 14
19 18 18 18 17 17 17 17 17 17 17 17 17 17 17 17 17 17 17 17 17 16 16 16 16 16 16 16 16 16 15 15 15 15 15 15 15 15 15 15 15 14 14
19 18 17 17 17 17 17 17 17 17 17 17 16 16 17 17 17 17 17 17 16 16 16 16 16 16 16 16 16 16 16 16 15 15 15 15 15 15 15 15 15 14 14
18 18 17 17 17 17 17 17 17 16 16 16 16 16 16 16 16 17 17 16 16 16 16 16 16 16 16 16 16 16 16 16 15 15 15 15 15 15 15 14 14 14 14
18 18 17 17 17 16 16 16 16 16 16 16 16 16 16 16 16 16 16 16 16 16 16 16 16 16 16 16 16 16 15 15 15 15 15 15 15 14 14 14 14 14 14
18 17 17 17 16 16 16 16 16 16 16 16 16 16 16 16 16 16 16 16 16 16 16 16 16 16 16 16 16 15 15 15 15 15 15 15 14 14 14 14 14 14 14
17 17 17 16 16 16 16 16 16 16 16 16 16 16 16 16 16 16 16 16 16 16 16 16 16 16 16 16 16 15 15 15 15 15 15 14 14 14 14 14 14 14 13
16 16 16 16 16 16 16 16 16 16 16 16 16 15 16 16 16 16 16 16 16 16 16 16 16 16 16 16 16 15 15 15 15 15 14 14 14 14 14 13 13 13 13
16 16 16 16 16 16 16 16 16 16 16 16 15 15 15 15 15 15 16 16 16 16 16 16 16 16 16 16 15 15 15 15 15 14 14 14 14 14 13 13 13 13 13
15 15 15 15 15 15 15 15 15 15 15 15 15 15 15 15 15 15 16 16 16 16 16 16 16 16 16 16 15 15 15 15 14 14 14 14 14 13 13 13 13 13 13
15 15 15 15 15 15 15 15 15 15 15 15 15 15 15 15 15 15 15 16 16 16 16 16 16 16 15 15 15 15 15 14 14 14 14 14 13 13 13 13 13 13 13
15 15 15 15 15 15 15 15 15 15 15 15 15 15 15 15 15 15 15 15 16 16 16 16 15 15 15 15 15 15 15 14 14 14 14 13 13 13 13 13 13 13 13
14 14 14 14 14 15 15 15 15 15 15 15 15 15 14 14 15 15 15 15 15 15 15 15 15 15 15 15 15 15 15 14 14 14 14 13 13 13 13 13 13 13 12
13 14 14 14 14 14 14 15 15 14 14 14 15 14 14 14 14 15 15 15 15 15 15 15 15 15 15 15 15 15 14 14 14 14 13 13 13 13 13 13 13 13 12
13 13 14 14 14 14 14 14 14 14 14 14 14 14 14 14 14 15 15 15 15 15 15 15 15 15 15 15 15 15 14 14 14 14 13 13 13 13 13 13 12 13 12
13 13 13 13 14 14 14 14 14 14 14 14 14 14 14 14 14 14 15 15 15 15 15 15 15 15 15 15 15 15 14 14 14 13 13 13 13 13 13 13 12 13 13
12 13 13 13 13 13 14 14 14 14 14 14 14 14 14 14 14 14 14 14 15 15 15 15 15 15 15 15 15 14 14 14 14 13 13 13 13 13 13 13 13 13 13
12 12 13 13 13 13 13 13 14 13 13 14 14 14 14 14 14 14 14 14 14 14 14 14 14 14 14 14 14 14 14 14 13 13 13 13 13 13 13 13 13 13 13
11 12 12 13 13 13 13 13 13 13 13 13 13 13 13 13 13 13 14 14 14 14 14 14 14 14 14 14 14 14 14 13 13 13 13 13 13 13 13 13 13 13 12
11 11 12 12 12 12 12 13 13 13 13 13 13 13 13 13 13 13 13 13 13 13 13 14 14 14 14 14 14 13 13 13 13 13 13 13 13 13 13 13 13 12 12
11 11 11 12 12 12 12 12 12 13 13 13 13 13 13 12 12 13 13 13 13 13 13 14 14 14 13 13 13 13 13 13 13 13 13 13 13 13 13 13 13 12 12
10 11 11 11 11 11 12 12 12 12 12 13 12 12 12 12 12 12 12 12 13 12 12 13 13 13 13 13 13 12 12 12 13 13 13 13 13 13 13 13 12 12 12
9 10 10 10 11 11 11 11 11 11 11 12 12 12 12 12 12 12 12 12 12 12 12 12 12 13 13 13 12 12 12 12 13 13 13 13 13 13 12 12 12 12 12
9 9 10 10 10 10 11 11 11 11 11 12 12 12 12 11 12 12 12 12 12 12 12 12 12 12 13 13 12 12 13 13 13 12 12 13 13 12 12 12 12 12 11
9 9 9 10 10 10 10 10 10 10 11 11 11 11 11 11 11 11 11 11 11 12 12 12 12 12 12 12 12 12 12 12 12 12 12 12 12 12 12 12 12 11 11
8 9 9 9 9 9 10 10 10 10 10 10 10 10 11 11 11 11 11 11 11 11 11 12 12 12 12 12 12 12 12 12 12 12 12 12 12 12 12 11 11 11 11
Wind_Speed
3 7 17 18 18 18 17 17 16 16 17 18 18 19 19 19 19 19 18 18 17 17 18 18 18 18 18 18 17 16 16 16 16 16 15 15 15 15 15 14 14 14 15
4 10 17 18 18 18 17 17 17 16 16 17 18 18 18 18 19 19 19 18 18 18 19 19 18 18 18 18 17 17 16 16 15 15 14 13 14 14 14 14 13 13 15
5 10 15 18 18 17 17 17 16 16 17 17 18 18 18 18 18 19 19 18 18 18 18 19 19 19 19 18 17 16 15 14 14 13 12 11 12 13 13 13 14 14 14
6 10 13 17 17 17 17 17 16 16 17 17 17 18 18 18 18 19 18 18 18 18 18 19 19 19 18 17 16 14 14 13 13 11 10 9 10 13 13 13 13 13 13
5 9 12 17 17 17 17 17 17 16 17 17 17 17 18 18 18 19 19 18 18 18 18 19 19 18 17 16 14 13 13 13 12 10 9 9 9 12 12 12 12 12 12
4 6 10 16 16 17 17 17 17 17 17 17 17 17 18 19 19 19 19 17 18 18 18 18 18 17 16 14 13 13 13 13 11 10 8 8 8 11 11 11 11 11 11
2 4 8 14 15 16 16 16 17 17 17 17 17 18 19 19 19 19 18 18 18 18 18 18 18 16 15 14 13 13 14 13 11 9 7 6 7 10 10 10 10 10 10
1 2 6 12 14 15 16 16 17 17 17 17 18 18 19 19 19 19 19 19 19 18 18 18 17 16 15 14 13 14 14 13 10 8 7 5 7 8 9 9 9 9 9
1 1 3 8 11 14 14 15 16 17 17 17 18 18 19 20 20 20 20 20 19 19 18 18 17 16 15 14 14 14 14 12 11 8 6 6 7 7 8 8 8 7 7
2 2 3 4 7 9 11 14 15 16 17 17 18 18 18 20 21 21 21 20 20 19 18 18 17 16 14 13 13 13 13 11 9 8 6 6 7 7 7 7 6 6 6
4 3 3 3 4 7 9 11 13 14 15 16 16 17 17 16 18 19 20 20 20 19 18 18 17 15 13 12 12 12 11 10 9 7 7 7 8 7 7 6 6 5 5
7 6 3 4 4 5 7 7 9 10 11 12 12 14 14 14 15 16 18 20 19 18 18 17 16 14 12 10 10 11 9 9 8 8 8 9 9 8 7 7 6 5 5
7 6 5 4 4 5 4 5 5 6 8 10 12 13 13 12 13 13 13 14 15 15 13 14 13 11 10 9 8 7 8 8 8 8 9 10 10 9 8 7 7 6 6
8 7 6 5 5 5 5 4 5 4 5 6 11 14 12 7 7 9 9 11 11 11 10 9 8 9 9 8 8 7 7 7 7 9 10 11 11 10 9 8 8 7 7
9 9 8 6 6 5 5 5 5 5 5 6 9 13 13 8 9 8 7 9 10 11 10 7 7 7 6 6 6 6 6 7 8 9 10 12 12 11 10 9 9 8 8
10 9 8 8 7 6 6 5 5 6 6 7 8 12 15 11 8 8 8 8 9 11 10 8 7 6 4 4 4 6 6 7 8 9 10 11 12 12 11 10 9 8 7
10 9 9 9 8 8 8 7 5 5 6 6 7 12 14 13 11 9 9 9 8 11 10 7 6 5 4 4 4 4 5 6 7 9 10 10 11 11 12 11 10 9 7
9 9 10 9 9 9 8 7 5 4 5 6 8 10 13 14 13 9 9 9 10 10 8 6 5 5 5 4 4 4 3 4 6 8 9 10 10 10 10 11 11 9 8
9 9 9 9 9 9 8 6 5 5 5 5 7 8 11 13 14 10 9 8 10 8 7 8 6 5 5 5 4 3 3 4 4 6 6 8 10 10 10 10 10 9 9
8 7 8 8 8 7 6 5 4 5 5 5 6 7 10 11 13 11 8 8 9 8 8 8 7 5 4 5 3 2 2 3 3 4 5 6 8 10 10 9 8 8 9
4 5 6 7 7 6 5 5 5 6 6 6 6 7 9 10 12 10 9 9 10 10 10 10 7 6 5 4 3 1 1 2 3 4 3 4 5 8 9 10 9 9 8
3 3 4 6 6 6 5 4 3 3 4 5 5 6 8 10 11 10 11 10 11 10 10 10 7 5 4 6 4 3 2 2 3 3 3 5 5 5 6 9 10 10 10
3 2 2 2 3 4 4 3 2 2 1 3 5 6 7 9 10 10 11 11 11 11 10 11 10 9 6 6 5 5 4 5 3 2 3 4 5 5 5 7 9 11 12
4 3 2 2 1 1 2 3 4 4 4 4 4 5 6 7 9 9 10 11 10 10 10 10 10 7 7 7 5 4 3 4 4 2 2 3 4 5 6 5 7 10 12
5 4 4 4 4 4 2 1 2 2 2 2 2 4 6 6 7 8 9 10 10 10 10 10 9 9 7 7 6 4 3 2 3 3 3 3 3 4 5 5 5 7 11
8 7 7 6 6 5 4 3 1 1 0 1 2 3 3 4 5 6 8 8 9 9 9 9 10 10 9 8 6 5 5 4 4 4 4 4 4 3 4 5 5 7 9
Wind_Direction
205 177 174 166 164 163 160 156 152 148 146 145 145 144 145 145 146 145 144 142 139 136 132 130 127 125 122 116 111 105 100 95 92 88 86 87 88 87 85 81 80 78 81
187 175 176 168 167 166 164 161 157 154 152 151 150 149 148 148 148 148 148 147 144 140 135 132 129 127 122 116 111 106 103 99 95 91 86 86 89 89 86 83 84 83 80
170 173 175 170 169 168 167 164 161 160 158 157 156 154 153 153 151 151 151 150 147 142 138 134 131 128 123 120 116 112 108 105 102 96 88 86 93 92 90 87 84 82 80
172 170 174 172 172 171 170 168 167 167 165 164 163 161 159 158 156 156 155 153 150 145 140 136 133 130 128 126 122 119 116 113 108 100 89 85 92 94 93 91 87 84 81
169 170 175 175 176 175 174 173 174 174 173 172 171 169 166 164 162 161 159 157 153 147 143 140 138 136 135 132 128 126 125 122 114 105 95 87 90 95 92 91 90 87 84
168 171 180 179 179 178 178 179 180 181 180 180 178 175 172 170 169 166 162 159 153 150 148 146 144 142 140 137 134 133 132 128 120 113 104 98 98 102 99 94 93 91 87
179 176 186 184 184 183 182 183 186 188 187 185 183 181 178 176 174 170 165 160 156 154 153 152 150 148 145 142 139 138 137 133 130 124 119 113 114 111 107 102 96 93 89
225 198 194 195 192 190 188 189 191 193 192 190 188 187 184 181 177 172 167 163 162 160 159 158 156 154 151 148 144 143 143 141 139 137 136 135 129 121 116 111 105 100 96
316 240 221 202 200 198 196 196 197 197 195 194 192 191 188 184 179 174 169 168 168 167 164 163 161 160 157 152 149 149 151 150 149 152 154 159 148 135 128 123 118 113 107
324 266 251 222 204 203 202 204 203 203 202 198 195 193 191 185 180 175 172 172 172 171 169 167 167 166 161 157 155 155 156 155 158 163 171 180 172 158 148 142 137 129 122
314 289 256 231 214 206 204 208 207 206 206 202 197 194 189 184 178 175 174 175 174 174 173 172 172 170 163 161 161 160 158 164 170 180 190 197 190 179 170 165 162 155 148
301 296 283 247 227 211 212 206 206 206 203 200 195 189 182 176 174 172 175 175 176 176 176 177 176 171 163 160 162 163 165 173 184 196 205 207 204 196 190 186 184 179 173
278 282 279 260 237 220 214 201 203 204 197 194 189 182 175 169 168 166 170 175 176 176 176 180 177 172 167 166 166 170 176 182 197 207 214 215 215 212 204 200 198 198 199
269 266 268 258 239 224 212 205 199 198 196 194 188 181 173 170 170 168 171 173 175 178 176 176 173 173 174 177 177 179 187 197 207 214 222 224 225 224 218 212 209 211 215
260 255 251 247 234 224 213 207 201 201 200 197 189 184 179 178 179 176 174 176 179 179 180 179 178 178 180 183 186 189 199 210 215 219 226 229 229 230 229 227 222 222 224
252 249 244 238 228 217 213 207 207 202 196 192 191 190 186 183 181 181 178 181 184 184 185 185 183 181 185 186 196 201 208 215 221 224 227 229 229 230 232 235 234 231 228
250 246 239 233 224 214 213 210 207 202 192 191 194 194 190 187 186 185 185 187 188 185 182 179 179 177 187 196 213 216 213 218 220 221 221 222 225 229 231 232 233 230 224
251 243 237 231 217 213 212 208 200 200 201 199 197 195 193 192 190 188 190 191 184 181 182 182 181 186 199 201 208 217 213 213 217 217 214 216 217 221 227 228 226 223 218
248 242 235 226 215 211 213 209 202 200 208 206 198 197 197 195 194 193 194 189 180 182 187 192 188 186 194 200 205 214 218 215 214 209 207 211 211 213 216 218 217 215 207
251 242 237 226 216 204 206 205 205 209 212 207 204 204 199 200 199 197 195 186 184 188 193 192 187 188 190 183 188 204 222 223 213 210 209 206 207 208 206 203 201 200 200
267 243 231 219 213 195 194 198 204 210 206 206 208 205 203 204 203 200 200 190 190 196 199 194 186 187 191 158 143 191 284 241 224 222 207 198 204 204 197 194 192 188 190
281 263 238 219 208 198 200 196 194 179 195 204 206 206 206 206 206 203 200 197 194 197 197 194 183 183 185 172 160 149 216 266 244 218 204 204 204 193 192 194 190 188 185
319 298 253 220 205 195 198 188 173 157 168 199 204 210 212 209 207 205 202 199 198 195 198 197 194 187 188 192 185 166 175 213 223 231 218 210 202 201 201 189 189 189 185
338 353 32 55 69 143 172 180 182 192 211 221 212 210 208 204 203 205 203 199 198 198 197 197 197 197 185 192 204 212 197 160 172 209 242 217 206 209 205 199 192 191 188
14 25 36 47 45 39 65 148 177 213 232 238 212 208 211 209 203 202 201 200 198 199 199 197 195 198 198 196 193 187 191 187 177 178 218 220 220 218 206 205 198 194 193
29 32 38 45 39 34 42 52 86 189 247 236 230 220 218 222 209 204 202 202 201 199 198 199 200 202 206 203 200 194 186 185 194 188 209 213 218 219 202 201 203 199 193
Height
1493 1494 1496 1498 1500 1503 1505 1508 1510 1512 1515 1517 1518 1520 1521 1523 1524 1526 1527 1528 1529 1530 1531 1533 1534 1535 1537 1538 1539 1540 1541 1542 1542 1543 1543 1543 1543 1544 1544 1544 1544 1544 1544
1493 1493 1495 1498 1500 1503 1505 1507 1510 1512 1514 1516 1518 1520 1521 1523 1524 1526 1527 1528 1530 1531 1532 1534 1535 1536 1538 1539 1540 1541 1542 1543 1543 1544 1544 1545 1545 1545 1545 1545 1545 1545 1545
1493 1493 1495 1498 1500 1503 1505 1507 1510 1512 1514 1516 1518 1520 1521 1523 1525 1526 1527 1529 1530 1532 1533 1534 1536 1537 1538 1540 1541 1542 1543 1544 1544 1545 1546 1546 1546 1546 1546 1546 1546 1546 1546
1493 1494 1495 1498 1500 1503 1505 1507 1510 1512 1514 1516 1518 1519 1521 1523 1524 1526 1527 1529 1531 1532 1534 1535 1536 1538 1539 1541 1542 1543 1544 1545 1545 1546 1547 1547 1547 1547 1547 1547 1547 1547 1547
1493 1494 1495 1498 1500 1502 1505 1507 1509 1511 1513 1515 1517 1519 1521 1522 1524 1526 1527 1529 1531 1532 1534 1536 1537 1539 1540 1541 1543 1544 1545 1546 1546 1547 1547 1548 1548 1548 1548 1548 1548 1548 1548
1494 1494 1495 1497 1500 1502 1504 1506 1508 1510 1512 1514 1516 1518 1520 1522 1524 1525 1527 1529 1531 1532 1534 1536 1538 1539 1541 1542 1543 1544 1545 1546 1547 1548 1548 1548 1549 1549 1549 1549 1549 1549 1549
1494 1494 1496 1497 1499 1501 1503 1505 1507 1509 1511 1513 1515 1517 1519 1521 1523 1525 1527 1529 1530 1532 1534 1536 1538 1540 1541 1542 1544 1545 1546 1547 1547 1548 1549 1549 1549 1550 1550 1550 1550 1550 1550
1494 1495 1495 1497 1499 1500 1502 1504 1506 1508 1509 1511 1513 1516 1518 1520 1522 1524 1526 1528 1530 1532 1534 1536 1538 1540 1541 1543 1544 1545 1546 1547 1548 1548 1549 1549 1550 1550 1550 1550 1550 1550 1550
1493 1494 1495 1496 1497 1499 1501 1503 1504 1506 1508 1510 1512 1514 1516 1518 1521 1522 1525 1527 1529 1532 1534 1536 1538 1540 1541 1543 1544 1545 1546 1547 1548 1549 1549 1550 1550 1550 1551 1551 1551 1551 1551
1492 1493 1494 1495 1496 1497 1499 1501 1502 1504 1506 1508 1510 1512 1514 1517 1519 1521 1523 1526 1528 1531 1533 1535 1537 1539 1541 1543 1544 1545 1546 1547 1548 1549 1549 1550 1550 1551 1551 1551 1551 1551 1551
1490 1491 1492 1493 1494 1495 1496 1498 1500 1502 1504 1506 1507 1510 1512 1514 1517 1519 1522 1525 1527 1530 1532 1534 1537 1539 1540 1542 1544 1545 1546 1547 1548 1549 1549 1550 1550 1551 1551 1551 1551 1551 1551
1488 1489 1489 1490 1491 1492 1494 1495 1497 1499 1501 1503 1505 1507 1509 1512 1514 1517 1520 1523 1525 1528 1531 1533 1536 1538 1539 1541 1542 1544 1545 1547 1547 1548 1549 1549 1550 1550 1551 1551 1551 1551 1551
1485 1485 1486 1487 1488 1489 1490 1492 1494 1496 1498 1500 1502 1504 1507 1509 1512 1514 1517 1520 1523 1526 1529 1531 1534 1536 1538 1540 1541 1543 1544 1545 1547 1547 1548 1549 1549 1550 1550 1550 1550 1550 1550
1481 1481 1482 1483 1484 1485 1487 1488 1490 1492 1494 1496 1499 1501 1504 1506 1508 1511 1514 1517 1520 1523 1526 1529 1531 1534 1536 1538 1540 1541 1543 1544 1545 1546 1547 1548 1548 1549 1549 1549 1549 1549 1549
1477 1477 1478 1479 1480 1481 1483 1484 1486 1488 1490 1493 1495 1497 1500 1502 1505 1508 1511 1514 1517 1520 1523 1526 1529 1532 1534 1536 1538 1539 1541 1542 1544 1545 1546 1546 1547 1547 1548 1548 1548 1548 1547
1471 1472 1474 1475 1476 1477 1478 1480 1482 1484 1486 1489 1491 1493 1496 1499 1501 1504 1507 1510 1514 1517 1521 1524 1526 1529 1531 1533 1535 1537 1538 1540 1541 1543 1544 1544 1545 1545 1546 1546 1546 1546 1546
1466 1467 1469 1470 1471 1472 1474 1476 1478 1480 1482 1485 1487 1489 1492 1495 1498 1501 1504 1506 1510 1514 1517 1520 1523 1526 1528 1530 1532 1534 1536 1537 1539 1540 1541 1542 1543 1543 1544 1544 1544 1544 1544
1460 1461 1463 1465 1466 1468 1470 1471 1473 1475 1478 1480 1482 1485 1488 1490 1493 1496 1500 1503 1506 1510 1514 1517 1520 1522 1525 1527 1529 1531 1533 1534 1536 1537 1538 1539 1540 1541 1541 1541 1542 1542 1542
1454 1455 1457 1459 1461 1463 1465 1467 1469 1471 1473 1476 1478 1481 1483 1486 1489 1492 1495 1498 1502 1505 1509 1513 1515 1518 1521 1523 1526 1528 1529 1531 1532 1534 1535 1536 1536 1537 1538 1539 1539 1539 1540
1449 1450 1451 1453 1455 1458 1460 1462 1464 1466 1468 1471 1473 1476 1479 1481 1484 1487 1490 1493 1497 1500 1504 1508 1511 1514 1517 1520 1522 1524 1526 1527 1528 1529 1531 1532 1533 1534 1534 1535 1536 1536 1537
1443 1444 1445 1447 1450 1453 1455 1457 1459 1461 1463 1466 1469 1471 1474 1476 1479 1482 1485 1488 1492 1495 1499 1503 1506 1510 1512 1515 1518 1520 1521 1523 1524 1525 1526 1527 1528 1530 1530 1531 1532 1533 1533
1439 1440 1441 1443 1446 1448 1450 1452 1454 1457 1459 1462 1464 1466 1469 1471 1474 1476 1480 1483 1486 1490 1493 1497 1500 1504 1507 1510 1513 1515 1517 1519 1518 1520 1521 1522 1524 1525 1526 1527 1528 1529 1529
1437 1437 1438 1440 1442 1444 1446 1448 1450 1452 1454 1457 1459 1461 1463 1466 1469 1472 1475 1477 1481 1484 1487 1491 1494 1498 1501 1505 1507 1510 1511 1511 1513 1514 1515 1517 1518 1520 1521 1522 1523 1524 1525
1435 1435 1436 1437 1438 1440 1442 1444 1446 1448 1450 1452 1454 1456 1458 1461 1463 1466 1469 1472 1475 1478 1481 1485 1489 1492 1496 1498 1501 1504 1506 1506 1508 1508 1510 1511 1513 1514 1516 1517 1518 1519 1520
1434 1434 1435 1436 1437 1438 1439 1441 1443 1445 1447 1449 1450 1452 1453 1455 1457 1460 1463 1466 1469 1472 1475 1479 1482 1486 1489 1492 1495 1497 1499 1501 1502 1503 1503 1505 1507 1508 1510 1512 1513 1514 1515
1435 1434 1435 1436 1436 1437 1438 1439 1441 1442 1444 1445 1446 1448 1449 1450 1452 1454 1457 1460 1463 1466 1469 1472 1476 1479 1482 1486 1488 1490 1492 1494 1495 1496 1498 1498 1500 1502 1503 1505 1507 1508 1509